Theta_e
347 335 333 337 332 330 327 329 331 332 334 333 335 334 334 339 339 340 339 335 332 335 339 339 342 329 325 326 328 334 333 335 336 337 336 333 335 340 340 341 340 334 332
348 336 334 332 332 328 326 329 331 332 334 335 340 337 336 337 333 329 327 326 326 328 336 337 336 331 328 331 335 336 336 336 336 336 336 340 341 342 342 343 334 333 336
350 332 335 331 329 327 325 328 330 330 332 334 336 336 331 329 328 327 335 342 340 334 333 333 337 333 339 338 337 335 335 336 343 343 342 340 338 340 339 335 331 332 333
350 333 329 329 328 326 325 325 329 329 329 330 335 335 334 332 329 327 329 332 337 340 338 335 334 336 334 330 330 335 333 341 346 345 346 344 336 333 333 334 333 332 332
349 349 325 325 326 326 325 326 327 328 328 329 332 334 334 334 329 327 327 329 331 334 337 337 337 336 332 332 333 333 335 333 336 345 342 341 337 334 333 333 334 336 332
350 352 332 328 330 330 332 330 330 330 329 331 333 334 334 333 329 328 328 329 329 328 330 335 338 337 336 334 334 333 333 332 331 334 344 345 335 337 340 336 337 333 334
353 348 339 338 334 336 337 337 338 339 339 339 337 335 336 335 330 330 329 327 328 333 335 337 340 336 335 335 334 334 333 328 342 333 338 339 331 330 334 333 333 327 332
354 349 340 341 340 338 338 340 341 341 341 342 342 340 339 340 340 332 329 329 333 337 339 340 338 338 336 336 334 333 333 333 343 338 335 333 329 330 328 330 335 328 327
353 350 340 341 341 341 340 340 341 341 342 342 341 340 339 337 337 335 332 334 336 337 339 339 340 339 337 338 336 334 336 335 343 342 329 329 330 329 329 328 329 332 336
352 350 347 344 341 341 341 340 340 342 342 339 340 340 335 333 335 335 333 339 337 337 338 338 339 341 338 337 337 336 338 336 338 341 339 329 326 329 326 326 327 331 330
352 351 349 348 346 346 342 339 337 339 340 333 334 336 339 339 336 335 338 336 330 334 337 338 339 339 335 335 336 336 339 339 336 342 343 339 337 337 332 329 330 329 331
354 352 349 348 351 346 349 342 339 338 334 335 331 331 332 341 337 335 331 332 337 341 339 340 339 338 336 341 344 344 342 340 339 338 341 340 341 340 336 333 334 330 330
354 353 349 349 348 347 348 346 335 341 336 336 339 339 339 340 336 334 337 343 343 346 345 347 346 347 345 343 346 345 345 342 342 340 337 336 340 340 340 338 336 331 330
350 351 353 350 349 347 348 347 344 340 337 345 344 342 341 341 340 336 339 340 344 345 346 345 345 344 347 346 346 346 344 345 342 341 340 335 335 336 336 337 336 332 330
351 350 352 350 349 348 350 350 346 345 342 345 345 345 343 341 342 341 342 343 344 346 346 346 347 343 346 347 349 348 347 345 343 343 339 338 337 335 336 336 336 333 332
349 350 350 349 348 347 349 349 349 346 347 348 347 345 345 343 343 341 340 343 346 346 346 349 347 345 345 344 348 347 350 347 348 347 345 344 340 336 335 336 335 336 335
350 349 348 348 349 349 348 350 349 346 351 347 347 347 346 342 342 341 340 339 345 347 345 347 347 351 348 349 348 350 349 350 351 347 344 346 343 339 335 335 335 335 336
350 351 351 350 349 349 349 349 347 345 349 349 347 346 345 341 340 340 340 337 345 347 346 349 349 348 347 348 349 346 349 348 348 348 346 342 345 344 338 337 335 335 335
351 350 350 352 352 352 348 346 346 345 348 350 349 345 346 344 341 341 338 335 342 345 347 348 351 348 347 348 350 349 349 347 344 349 347 346 346 345 344 341 337 335 335
349 352 351 351 351 351 351 349 347 351 349 350 348 346 346 346 341 340 340 339 338 345 346 343 346 348 348 349 350 350 349 350 348 348 345 347 345 345 345 345 345 339 337
346 346 353 348 351 351 350 347 347 350 348 349 350 347 347 342 344 341 341 340 338 342 345 339 340 342 344 350 350 348 337 348 350 348 345 347 345 344 344 344 344 342 336
343 349 351 352 349 350 349 350 349 348 350 350 347 343 342 345 344 340 341 344 342 339 345 342 339 342 342 349 350 346 343 344 348 345 348 346 347 344 346 343 343 343 341
351 351 352 350 349 349 351 349 349 351 349 347 344 342 343 342 344 343 342 344 344 342 341 342 340 342 346 347 350 351 344 341 343 347 346 345 347 343 344 344 345 344 343
352 354 350 346 351 352 349 352 349 348 347 344 344 344 345 344 341 343 345 343 343 343 341 348 346 345 345 344 344 351 350 347 344 344 345 338 346 344 346 344 344 345 343
348 350 353 354 352 354 348 352 349 346 345 345 345 346 345 345 347 344 342 343 343 343 342 345 348 349 348 349 347 349 347 338 340 345 338 343 348 350 345 346 344 343 344
352 351 352 349 348 353 352 347 344 348 345 346 347 346 346 346 346 347 344 344 344 343 342 345 347 349 345 348 349 348 349 347 344 342 344 341 342 345 351 351 346 347 344
Wind_Speed
20 21 22 23 24 24 25 25 24 23 22 23 23 22 21 20 19 18 17 17 16 16 15 14 13 14 15 16 16 15 15 17 17 17 18 19 20 22 20 18 16 18 17
24 23 22 22 22 22 23 24 23 21 21 21 19 20 19 18 18 16 15 14 14 14 13 13 12 13 14 15 15 14 14 16 17 16 17 19 18 18 18 17 15 17 16
24 24 24 23 22 20 21 23 22 20 19 18 16 16 16 15 14 14 14 13 14 14 13 12 12 12 12 12 13 14 16 17 17 18 15 13 16 15 14 12 14 16 16
23 24 25 23 22 20 19 20 18 15 14 14 13 12 12 12 12 13 13 12 11 11 11 10 10 10 11 11 12 12 13 15 15 12 13 10 14 15 13 13 15 14 14
22 22 24 24 22 21 19 18 16 15 13 11 11 10 9 8 9 10 10 9 9 8 8 7 8 8 9 10 8 7 7 11 10 14 12 12 13 17 15 14 14 14 13
24 23 24 24 22 20 18 17 16 14 13 11 9 8 7 7 7 7 7 6 6 5 5 5 4 5 4 5 4 3 8 6 5 8 9 13 12 16 16 14 13 12 11
28 18 26 23 22 21 19 17 15 14 13 11 10 9 6 5 4 4 4 3 4 4 3 2 2 2 2 2 1 2 6 8 7 9 11 12 13 15 15 13 11 11 11
23 19 25 24 21 19 18 16 14 12 12 12 11 11 9 5 2 1 1 2 2 2 3 2 3 4 3 5 3 2 4 12 6 13 10 13 9 10 12 12 10 11 11
22 21 25 25 22 19 17 16 14 13 12 12 11 10 10 7 5 3 0 0 2 4 4 2 5 5 4 6 5 3 2 13 9 10 11 12 11 8 8 6 8 8 10
22 17 21 23 21 19 18 15 13 13 12 7 8 7 11 12 12 6 4 3 4 6 7 6 6 6 6 6 6 5 4 10 13 9 9 13 9 9 6 3 2 3 8
21 21 17 18 19 17 15 15 14 13 14 12 12 14 7 13 15 11 7 6 9 13 10 9 8 7 5 5 4 8 7 8 14 12 9 11 11 9 10 9 6 7 7
23 21 22 17 17 13 11 13 15 13 13 13 11 14 15 9 18 14 10 11 8 10 8 7 3 5 5 6 11 7 5 6 13 16 16 13 12 12 12 14 10 12 8
22 23 19 18 17 15 20 14 14 14 12 13 11 11 9 8 15 14 10 6 8 7 4 9 2 5 9 6 12 8 5 5 14 14 17 14 17 16 14 15 15 16 11
21 20 22 20 22 20 17 17 12 13 12 7 6 7 7 6 10 12 10 9 5 3 9 2 2 7 7 12 12 7 6 12 8 17 15 16 10 17 16 17 17 20 17
22 21 24 24 21 16 18 14 13 10 10 13 13 9 7 7 7 9 9 6 3 4 2 6 3 9 10 13 12 12 5 15 20 13 17 15 18 12 17 18 18 21 20
27 24 19 23 20 21 19 14 13 12 8 10 7 9 7 8 10 8 9 7 8 7 5 3 8 9 7 11 6 8 4 6 7 4 2 9 10 11 14 18 18 19 24
25 24 25 22 20 17 18 15 13 11 11 9 7 8 9 9 9 9 6 11 6 1 1 6 5 7 8 6 10 9 7 2 2 1 5 3 9 15 15 17 18 18 25
15 22 21 17 17 18 19 13 12 11 11 12 9 6 9 7 8 11 11 12 9 4 6 3 7 8 6 8 9 12 8 2 5 4 6 3 12 13 17 17 19 20 22
20 19 20 17 13 15 16 16 13 11 9 10 10 11 12 10 8 10 11 9 8 7 6 4 10 10 6 7 9 7 4 5 3 9 7 5 6 7 9 9 15 17 24
14 13 13 17 12 14 12 13 12 13 12 13 17 13 11 10 9 9 9 11 11 4 11 9 8 7 5 4 10 3 2 4 7 5 10 12 5 3 5 7 9 15 21
10 10 11 12 14 13 15 10 10 10 9 11 11 6 7 5 10 9 9 11 14 11 13 7 4 7 7 5 5 4 8 3 5 6 5 10 6 4 4 8 11 11 17
18 14 13 13 15 14 13 10 8 5 5 7 7 6 8 10 11 10 11 11 13 13 13 8 5 7 12 12 6 5 3 4 9 10 5 6 9 7 9 7 6 7 13
19 17 17 16 12 13 11 10 8 8 8 8 8 6 5 9 13 13 12 14 13 16 16 7 6 7 12 8 5 3 3 1 3 5 8 9 7 8 11 8 8 9 9
16 13 14 14 12 11 11 7 7 7 9 6 8 7 6 9 10 11 14 15 15 16 18 14 10 8 8 8 6 4 5 5 6 2 8 13 6 12 8 11 11 12 13
16 14 12 10 10 10 5 8 5 8 7 7 8 7 8 11 11 10 12 16 15 16 16 16 13 10 11 7 6 2 8 7 11 8 10 10 13 14 16 12 17 19 18
17 16 10 10 8 11 7 8 7 8 6 6 5 6 7 10 9 10 12 14 17 17 18 20 15 14 11 13 7 6 6 7 12 10 12 8 8 11 16 14 19 18 22
Wind_Direction
149 145 136 137 137 137 136 135 129 123 118 113 108 108 105 102 100 100 99 98 95 95 94 95 99 90 99 104 106 105 106 106 107 104 100 101 102 100 95 90 111 106 107
150 150 146 141 142 139 140 139 134 128 121 116 112 106 103 101 99 96 93 91 91 92 95 100 96 98 100 100 101 100 98 96 92 91 102 106 104 107 111 123 105 108 107
142 150 148 146 147 146 144 146 140 130 124 120 115 109 105 100 97 94 91 85 84 88 91 91 98 100 100 99 100 99 99 104 103 91 72 99 105 110 114 120 110 110 113
144 144 148 146 148 149 146 150 156 150 134 125 122 114 106 99 96 95 95 97 91 81 83 87 91 97 100 99 91 95 105 109 106 97 117 105 112 104 104 105 106 108 112
140 145 146 144 146 146 146 147 148 152 151 135 131 121 112 106 97 94 94 91 89 91 83 83 89 99 113 103 92 79 119 110 96 115 124 110 115 110 105 104 105 108 109
145 158 150 147 145 146 144 145 144 142 147 143 133 131 126 110 99 92 87 84 81 78 80 86 100 116 125 130 166 137 144 142 109 139 140 126 116 111 106 107 110 109 113
150 166 159 152 150 150 149 150 149 149 154 156 152 151 133 114 107 103 91 66 62 55 46 60 161 164 181 180 215 198 145 146 114 165 150 145 127 108 107 106 102 106 117
148 156 163 159 155 155 157 159 163 166 170 168 168 165 161 160 155 127 76 38 21 25 33 353 284 265 268 228 218 227 192 153 167 193 194 170 156 121 105 97 100 109 111
142 163 162 163 163 161 164 168 173 175 177 182 187 189 204 217 202 204 216 284 323 330 334 313 295 280 261 249 243 289 160 167 187 192 192 197 174 164 126 106 94 116 116
146 150 161 166 169 168 169 173 178 182 191 202 228 218 250 241 238 201 216 262 287 313 310 322 309 294 281 260 251 264 226 179 195 197 196 224 223 234 203 218 175 136 134
151 156 169 175 172 172 177 179 183 192 202 217 231 237 280 253 232 216 221 265 296 295 289 299 309 314 279 258 261 268 238 211 187 187 176 215 225 230 233 233 222 197 157
158 163 175 175 176 169 167 191 185 196 222 224 251 247 263 267 216 224 232 276 285 303 283 289 305 303 261 241 238 276 249 227 196 200 202 211 216 238 227 224 223 198 181
168 167 175 178 172 167 194 206 207 204 221 230 243 249 252 261 210 223 233 255 269 297 277 262 249 287 246 348 233 287 317 217 225 216 208 221 229 223 232 227 220 200 194
168 178 172 174 168 181 199 209 226 216 230 264 266 241 239 237 217 223 231 246 233 224 259 129 345 318 262 288 277 258 243 214 212 223 215 207 208 223 230 224 211 198 202
173 169 174 174 178 190 200 203 222 212 220 229 247 254 255 231 213 214 217 237 254 209 246 265 284 233 240 263 267 265 297 207 222 255 190 208 217 207 213 210 206 203 207
179 165 164 178 188 198 201 214 218 227 201 242 237 253 248 244 240 217 230 208 210 222 233 296 272 251 257 295 245 265 230 296 274 189 66 175 179 183 201 210 211 214 213
184 197 203 199 194 199 206 208 212 217 204 238 237 252 249 237 227 215 208 189 192 337 217 244 256 238 260 267 306 290 283 246 255 198 287 295 196 191 193 206 212 214 208
179 182 199 200 195 205 212 209 216 202 215 251 249 253 258 227 209 210 208 193 195 189 232 244 268 271 256 249 295 307 257 212 156 285 237 272 207 223 198 201 210 211 208
178 197 193 200 202 194 199 219 216 214 211 245 261 251 244 233 219 203 202 202 201 199 233 228 252 285 326 342 327 313 360 317 283 208 210 242 218 190 179 212 219 217 217
188 176 177 185 176 194 203 231 221 207 210 227 250 257 227 231 230 213 211 214 206 206 262 237 249 279 316 314 314 307 209 264 277 266 197 226 211 198 198 216 221 226 225
207 193 210 190 204 204 216 210 209 212 225 216 252 267 235 239 246 225 221 225 222 217 246 254 277 269 260 259 285 269 262 247 275 284 274 234 212 195 205 216 228 239 221
180 185 194 212 215 211 210 202 208 191 245 226 233 262 247 241 238 237 236 225 229 231 247 248 267 275 260 245 218 262 316 293 236 221 290 251 234 252 226 248 257 244 223
174 187 188 204 214 214 208 203 193 162 229 223 235 285 255 258 253 249 242 229 235 231 235 244 253 246 279 310 212 229 128 107 360 274 224 232 217 237 257 245 239 233 233
164 192 208 206 203 218 205 194 201 198 217 244 266 263 232 258 265 245 234 235 236 235 230 237 251 252 251 259 267 263 228 49 23 114 218 233 235 214 235 241 251 249 250
161 166 190 189 193 194 171 170 216 225 242 251 265 266 263 258 250 249 246 229 232 234 226 220 235 253 248 268 284 273 245 194 221 256 254 256 250 241 226 229 231 242 247
161 164 171 172 167 175 199 173 191 221 235 246 262 267 259 258 252 245 237 236 231 231 228 217 227 248 243 255 244 250 321 250 193 206 206 256 268 244 240 246 236 232 248